Lebanon, NH

3:14 PM EDT on March 29, 2017 (GMT -0400)
Lebanon Municipal

Weather History for KLEB - December, 2012

Change the Weather History Date:

Tuesday, December 18, 2012

  Actual Average Record
Temperature  
Mean Temperature 36 °F -  
Max Temperature 37 °F 29 °F 54 °F (1928)
Min Temperature 35 °F 12 °F -14 °F (2007)
Degree Days  
Heating Degree Days 29    
Moisture  
Dew Point 34 °F    
Average Humidity 92    
Maximum Humidity 100    
Minimum Humidity 86    
Precipitation  
Precipitation 0.48 in - - ()
Sea Level Pressure  
Sea Level Pressure 29.53 in    
Wind  
Wind Speed 2 mph (North)    
Max Wind Speed 5 mph    
Max Gust Speed -    
Visibility 4 miles    
Events Rain    
Averages and records for this station are not official NWS values.
T = Trace of Precipitation, MM = Missing Value Source: NWS Daily Summary

Daily Weather History Graph

Daily Weather History Graph

Search for Another Location

Airport or City:

Trip Planner

Search our weather history database for the weather conditions in past years. The results will help you decide how hot, cold, wet, or windy it might be!

Date:

Astronomy

Dec. 18, 2012 Rise Set
Actual Time 7:18 AM EST 4:14 PM EST
Civil Twilight 6:45 AM EST 4:47 PM EST
Nautical Twilight 6:08 AM EST 5:23 PM EST
Astronomical Twilight 5:33 AM EST 5:58 PM EST
Moon 10:46 AM EST (12/18) 10:48 PM EST (12/18)
Length of Visible Light 10h 01m
Length of Day
8h 56m
Waxing Crescent, 34% of the Moon is Illuminated
Dec 18
Waxing Crescent
Dec 20
First Quarter
Dec 28
Full
Jan 4
Last Quarter
Jan 11
New

Hourly Weather History & Observations

Time (EST) Temp. Windchill Dew Point Humidity Pressure Visibility Wind Dir Wind Speed Gust Speed Precip Events Conditions
12:53 AM 35.1 °F 31.0 °F 32.0 °F 89% 29.80 in 10.0 mi NNW 4.6 mph - N/A   Overcast
1:53 AM 37.0 °F 34.5 °F 33.1 °F 86% 29.76 in 10.0 mi Variable 3.5 mph - N/A   Overcast
2:53 AM 36.0 °F - 33.1 °F 89% 29.74 in 9.0 mi Calm Calm - 0.01 in Rain Light Rain
3:01 AM 35.6 °F - 33.8 °F 93% 29.71 in 8.0 mi Calm Calm - 0.00 in Rain Light Rain
3:10 AM 37.4 °F 34.9 °F 33.8 °F 87% 29.71 in 7.0 mi Variable 3.5 mph - 0.00 in Rain Light Rain
3:20 AM 37.4 °F 34.9 °F 33.8 °F 87% 29.70 in 5.0 mi NNE 3.5 mph - 0.01 in Rain Light Rain
3:30 AM 35.6 °F 31.7 °F 33.8 °F 93% 29.70 in 5.0 mi North 4.6 mph - 0.02 in Rain Light Rain
3:53 AM 37.0 °F 33.3 °F 34.0 °F 89% 29.70 in 6.0 mi NE 4.6 mph - 0.04 in Rain Light Rain
4:53 AM 37.9 °F 34.4 °F 34.0 °F 86% 29.65 in 10.0 mi NE 4.6 mph - 0.01 in Rain Light Rain
5:53 AM 36.0 °F - 34.0 °F 93% 29.65 in 10.0 mi Calm Calm - 0.01 in Rain Light Rain
6:53 AM 37.0 °F 33.3 °F 34.0 °F 89% 29.64 in 6.0 mi Variable 4.6 mph - 0.06 in Rain Light Rain
7:18 AM 35.6 °F 32.8 °F 32.0 °F 87% 29.61 in 2.5 mi North 3.5 mph - 0.07 in Rain Rain
7:33 AM 35.6 °F 31.7 °F 33.8 °F 93% 29.60 in 5.0 mi North 4.6 mph - 0.08 in Rain Light Rain
7:53 AM 35.1 °F - 33.1 °F 92% 29.62 in 6.0 mi Calm Calm - 0.08 in Rain Light Rain
8:01 AM 35.6 °F - 33.8 °F 93% 29.59 in 4.0 mi Calm Calm - 0.00 in Rain Light Rain
8:16 AM 35.6 °F 32.8 °F 33.8 °F 93% 29.58 in 4.0 mi NNW 3.5 mph - 0.00 in Rain Light Rain
8:50 AM 35.6 °F 32.8 °F 33.8 °F 93% 29.56 in 6.0 mi NNW 3.5 mph - 0.01 in   Overcast
8:53 AM 35.1 °F 32.2 °F 33.1 °F 92% 29.58 in 5.0 mi NW 3.5 mph - 0.01 in Rain Light Rain
9:20 AM 35.6 °F - 33.8 °F 93% 29.56 in 5.0 mi Calm Calm - 0.00 in Rain Light Rain
9:30 AM 35.6 °F - 33.8 °F 93% 29.56 in 8.0 mi Calm Calm - 0.00 in   Overcast
9:53 AM 36.0 °F - 34.0 °F 93% 29.57 in 4.0 mi Calm Calm - 0.00 in Rain Light Rain
9:57 AM 35.6 °F - 33.8 °F 93% 29.55 in 2.5 mi Calm Calm - 0.01 in Rain Light Rain
10:13 AM 35.6 °F 31.7 °F 33.8 °F 93% 29.53 in 4.0 mi NW 4.6 mph - 0.02 in Rain Light Rain
10:36 AM 37.4 °F - 35.6 °F 93% 29.52 in 7.0 mi Calm Calm - 0.03 in Rain Light Rain
10:53 AM 37.9 °F - 35.1 °F 89% 29.53 in 4.0 mi Calm Calm - 0.03 in Rain Light Rain
11:12 AM 37.4 °F 34.9 °F 33.8 °F 87% 29.50 in 6.0 mi North 3.5 mph - 0.01 in Rain Light Rain
11:27 AM 37.4 °F - 35.6 °F 93% 29.49 in 5.0 mi Calm Calm - 0.01 in Rain Light Rain
11:53 AM 37.9 °F - 36.0 °F 93% 29.50 in 6.0 mi Calm Calm - 0.01 in   Overcast
12:05 PM 37.4 °F 33.8 °F 35.6 °F 93% 29.48 in 5.0 mi North 4.6 mph - 0.01 in Rain Light Rain
12:35 PM 37.4 °F 34.9 °F 35.6 °F 93% 29.46 in 2.5 mi NNE 3.5 mph - 0.03 in Rain Light Rain
12:53 PM 37.9 °F 34.4 °F 36.0 °F 93% 29.47 in 3.0 mi North 4.6 mph - 0.04 in Rain Light Rain
1:40 PM 37.4 °F 33.8 °F 35.6 °F 93% 29.44 in 2.5 mi NNE 4.6 mph - 0.00 in   Overcast
1:45 PM 37.4 °F 34.9 °F 35.6 °F 93% 29.44 in 3.0 mi North 3.5 mph - 0.00 in   Overcast
1:53 PM 37.0 °F 34.5 °F 35.1 °F 93% 29.46 in 3.0 mi Variable 3.5 mph - 0.00 in   Overcast
2:30 PM 37.4 °F - 35.6 °F 93% 29.45 in 5.0 mi Calm Calm - N/A   Overcast
2:40 PM 37.4 °F 33.8 °F 35.6 °F 93% 29.45 in 6.0 mi NNE 4.6 mph - N/A   Overcast
2:53 PM 37.9 °F - 36.0 °F 93% 29.47 in 7.0 mi Calm Calm - N/A   Overcast
3:08 PM 37.4 °F - 35.6 °F 93% 29.45 in 1.8 mi Calm Calm - 0.00 in Rain Light Rain
3:35 PM 37.4 °F - 35.6 °F 93% 29.45 in 0.8 mi Calm Calm - 0.04 in Rain Light Rain
3:51 PM 37.4 °F - 35.6 °F 93% 29.45 in 0.8 mi Calm Calm - 0.06 in Rain Light Rain
3:53 PM 37.0 °F - 35.1 °F 93% 29.47 in 0.8 mi Calm Calm - 0.06 in Rain Light Rain
4:00 PM 37.4 °F 34.9 °F 35.6 °F 93% 29.45 in 1.2 mi NE 3.5 mph - 0.00 in Rain Light Rain
4:16 PM 35.6 °F - 35.6 °F 100% 29.45 in 1.2 mi Calm Calm - 0.01 in Rain Light Rain
4:23 PM 35.6 °F - 33.8 °F 93% 29.45 in 0.8 mi Calm Calm - 0.01 in Rain Light Rain
4:30 PM 35.6 °F - 33.8 °F 93% 29.45 in 1.0 mi Calm Calm - 0.01 in Rain Light Rain
4:53 PM 36.0 °F - 34.0 °F 93% 29.47 in 1.0 mi Calm Calm - 0.02 in Rain Light Rain
5:07 PM 35.6 °F - 33.8 °F 93% 29.45 in 1.2 mi Calm Calm - 0.01 in Rain Light Rain
5:53 PM 37.0 °F - 35.1 °F 93% 29.47 in 1.2 mi Calm Calm - 0.04 in Rain Light Rain
6:00 PM 35.6 °F - 33.8 °F 93% 29.45 in 2.0 mi Calm Calm - 0.00 in Rain Light Rain
6:16 PM 35.6 °F - 33.8 °F 93% 29.45 in 2.0 mi Calm Calm - 0.00 in   Overcast
6:39 PM 35.6 °F - 33.8 °F 93% 29.46 in 3.0 mi Calm Calm - 0.00 in Rain Light Rain
6:53 PM 36.0 °F - 34.0 °F 93% 29.48 in 3.0 mi Calm Calm - 0.01 in Rain Light Rain
7:02 PM 35.6 °F - 33.8 °F 93% 29.46 in 2.0 mi Calm Calm - 0.00 in Rain Light Rain
7:53 PM 36.0 °F - 35.1 °F 97% 29.48 in 2.0 mi Calm Calm - 0.01 in   Overcast
8:53 PM 36.0 °F - 34.0 °F 93% 29.49 in 2.0 mi Calm Calm - 0.01 in Rain Light Rain
9:00 PM 35.6 °F - 33.8 °F 93% 29.47 in 4.0 mi Calm Calm - 0.00 in Rain Light Rain
9:20 PM 35.6 °F - 33.8 °F 93% 29.46 in 4.0 mi Calm Calm - 0.00 in Rain Light Rain
9:53 PM 36.0 °F - 33.1 °F 89% 29.48 in 3.0 mi Calm Calm - 0.01 in   Overcast
10:09 PM 35.6 °F - 33.8 °F 93% 29.46 in 2.0 mi Calm Calm - N/A   Overcast
10:23 PM 35.6 °F - 33.8 °F 93% 29.46 in 2.0 mi Calm Calm - N/A   Overcast
10:53 PM 35.1 °F - 33.1 °F 92% 29.49 in 2.0 mi Calm Calm - N/A   Overcast
11:04 PM 35.6 °F - 33.8 °F 93% 29.47 in 1.5 mi Calm Calm - 0.01 in   Overcast
11:31 PM 35.6 °F - 33.8 °F 93% 29.46 in 1.8 mi Calm Calm - 0.02 in   Overcast
11:40 PM 35.6 °F - 33.8 °F 93% 29.46 in 2.5 mi Calm Calm - 0.02 in   Overcast
11:49 PM 35.6 °F - 33.8 °F 93% 29.46 in 4.0 mi Calm Calm - 0.02 in   Overcast
11:53 PM 35.1 °F - 33.1 °F 92% 29.48 in 5.0 mi Calm Calm - 0.02 in   Overcast